Погода в Балхаше

Погода в Балхаше : погода сейчас, прогноз погоды и архив. Всё, что Вы хотите узнать о погоде в Балхаше!

Хотите узнать прогноз погоды в Балхаше? Тогда Вам сюда: Погода в Балхаше

Поиск расширенной информации на нашем сайте:

Полезная информация:

Другие новости

Новости СМИ2

Главная страница сайта

Новости сайта

03.07.2017

Напоминаем, что на нашем специализированном сайте Метеоцентр.Азия вы можете получить высокодетализированные автоматические прогнозы погоды по пунктам России, СНГ и мира в авиационном формате (включающие направление и скорость ветра, видимость, явления погоды, количество и форму облачности, нижнюю и верхнюю границу облачности).

Рекомендуем:

Погода в Балхаше - сегодня

Время (UTC), дата Ветер
(°,м/с) 
Видим.   Явления Облачность Т
(°С)
Тd
(°С)
f(%) Тe
(°С)
Pmin
(гПа)
dP
(гПа)
Po
(мм)
O2
(г/м3)
Тmin Tmax R s Состояние
почвы
00 22.05.19 020 (С) 7{19}  4000 м  гроза, ливневой дождь  10/10 600 м кучево-дожд. 
[Cb cap]
+9.8 +8.2 90 +8  1008.3  1.1  725  281           
03 22.05.19 090 (В) 3{15}  20000 м  в посл. час ливневой дождь{гроза}  10/5 600 м кучево-дожд., средняя 
[Cb cap|Ac trans]
+10.8 +10 95 +12  1006.3  -1.8  724  279           
06 22.05.19 330 (СЗ) 20000 м  {гроза, ливн. осадки}  9/9 1000 м 
[Cu med, cong]
+14.1 +9.1 72 +15  1008.3  2.4  726  276  +8       
09 22.05.19 330 (СЗ) 8{16}  20000 м    9/9 1000 м 
[Cu med, cong]
+16.8 +2.1 37 +16  1011  2.9  728  276           
12 22.05.19 300 (СЗ) 6{16}  20000 м    8/8 1000 м 
[Cu hum]
+17.2 -3.4 24 +17  1013.5  2.4  730  277           
15 22.05.19 330 (СЗ) 10 км    3/0 средняя 
[Ac trans]
+14.2 +2.1 44 +15  1016.4  2.4  731  280    +17.9       
18 22.05.19 тихо ()   10 км    9/0 верхняя 
[Ci sp]
+12.5 +6.3 66 +13  1017.8  1.1  732  281    +17.9       
21 22.05.19 350 (С) 10 км  слаб. ливневой дождь  9/9 600 м кучево-дожд. 
[Cb cap]
+11.3 +5.5 67 +11  1019.1  1.1  733  283           
00 23.05.19 290 (З) 10 км  слаб. ливневой дождь  9/9 600 м кучево-дожд. 
[Cb cap]
+11.3 +3.7 59 +11  1019  -0.1  733  283           
03 23.05.19 060 (СВ) 20000 м  в посл. час ливневой дождь  9/8 1000 м средняя 
[Cu Sc|Ac lent]
+11.6 +6.1 69 +11  1019.9  0.9  734  283           
06 23.05.19 040 (СВ) 20000 м  {ливн. осадки}  8/8 1000 м 
[Cu Sc]
+16.1 +0.6 35 +17  1019.4  0.1  734  279  +10.3       
09 23.05.19 190 (Ю) 20000 м    9/8 1000 м верхняя 
[Cu med, cong|Ci sp]
+16.3 +3.1 41 +17  1019.1  -0.2  734  278           
12 23.05.19 060 (СВ) 20000 м    8/8 1000 м 
[Cu med, cong]
+17.5 -3.3 24 +18  1018.7  -0.3  733  278           
15 23.05.19 040 (СВ) 10 км    ясно 
+14.8 +4.6 50 +16  1019.7  0.7  734  280    +18.7       
18 23.05.19 040 (СВ) 10 км    ясно 
+10.7 +5.5 70 +10  1021.3  0.9  735  284    +18.7       
21 23.05.19 050 (СВ) 10 км    ясно 
+7.9 +5 82 +7  1021.3  -0.4  734  287           
00 24.05.19 060 (СВ) 20000 м    1/0 верхняя 
[Ci sp]
+7.5 +3.8 77 +6  1021.1  -0.2  734  287           
03 24.05.19 110 (В) 20000 м    3/0 верхняя 
[Ci fib]
+14.4 +3.8 49 +14  1019.7  -0.4  734  280           
06 24.05.19 100 (В) 20000 м    8/0 верхняя 
[Ci fib]
+17.6 -1 28 +18  1017.7  -1.5  733  277  +7         
09 24.05.19 100 (В) 20000 м    9/0 верхняя 
[Ci fib]
+20 -0.5 25 +20  1014.6  -2.7  731  274           
12 24.05.19 120 (ЮВ) 20000 м    9/0 верхняя 
[Ci sp]
+20.6 +0.3 26 +21  1012.6  -1.8  729  273           
15 24.05.19 090 (В) 10 км    10/0 верхняя 
[Cs]
+17.1 +2.3 37 +18  1012.8  -0.3  729  276    +20.8       
18 24.05.19 070 (В) 10 км    6/0 верхняя 
[Ci fib]
+14.7 +5.1 53 +15  1013.2  0.1  729  278    +20.8       
21 24.05.19 050 (СВ) 10 км    10/0 верхняя 
[Cs]
+13.1 +4 54 +13  1012.5  -0.9  729  279           
00 25.05.19 040 (СВ) 10 км    10/10 1500 м 
[Sc]
+11.8 +4.7 62 +12  1012.9  0.2  729  281           
Время (UTC), дата Ветер
(°,м/с) 
Видим.   Явления Облачность Т
(°С)
Тd
(°С)
f(%) Тe
(°С)
Pmin
(гПа)
dP
(гПа)
Po
(мм)
O2
(г/м3)
Тmin Tmax R s Состояние
почвы

Для получения пояснительной информации подведите курсор к названию столбца.

ПОГОДА в Балхаше - архив

Всё, что Вы хотите узнать о погоде в Балхаше - удобно и подробно!

Выберите нужную дату (начиная с 1 января 2018* года) и нажмите кнопку "Найти".
Будут отображены архивные сводки погоды по пункту Балхаш, начиная с указанной даты.


Отображать данные в формате CSV (для использования в таблицах Excel)


Внимание! Наш архив погоды предназначен исключительно для личного некоммерческого использования в познавательных целях. Если Вам необходимы официальные справки о состоянии погоды (для производственных, юридических, коммерческих и т.п. целей), обращайтесь в органы Росгидромета.

*Примечание: данная дата относится к архиву по метеостанциям СССР (Россия, СНГ, Балтия).
Архив по метеостанциям Зарубежной Европы и Азии (кроме Китая) хранится 10 дней, по другим регионам земного шара (Китай, Африка, Америка, Австралия, Океания) - 1 день.

Балхаш - район местоположения метеостанции


Название, широта, долгота, высота метеостанции:
Балхаш 46.8°ш. 75.1°д. 350 м над ур. моря [Казахстан]

Дополнительная информация

В oтличие oт бoльшинства пoгoдных сайтoв мы публикуем пoдрoбную метеoинфoрмацию в детальнoм прoфессиoнальнoм фoрмате.

Характеристики температуры и влажнoсти вoздуха измеряются на высoте 2 м в тени вдали oт зданий и деревьев.
Скoрoсть ветра измеряется на высoте 10 м (на урoвне рoста челoвека скoрoсть ветра ниже в 1.5-2 раза). Если метеoстанция нахoдится в гoрoде или в лесу, тo скoрoсть ветра занижена на 2-4 м/с пo сравнению с oткрытым местoм. Скoрoсть ветра над акватoриями крупных рек и oзёр, а также на вершинах хoлмoв на 2-5 м/с выше, чем в oбычных услoвиях.
Атмoсфернoе давление в разных тoчках местнoсти мoжет значительнo oтличаться oт давления на метеoстанции, в зависимoсти oт услoвий рельефа (при пoдъёме на 10 м давление пoнижается примернo на 1 мм рт.ст.).